Weather History for Jacksonville, IL

Change the Weather History Date:

Sunday, March 9, 2014

  Actual Average (KSPI) Record (KSPI)
Temperature  
Mean Temperature 38 °F 40 °F  
Max Temperature 52 °F 49 °F 75 °F (1918)
Min Temperature 24 °F 30 °F 6 °F (1969)
Degree Days  
Heating Degree Days 27 26  
Month to date heating degree days 245  
Since 1 July heating degree days 4516  
Cooling Degree Days 0 0  
Month to date cooling degree days 0  
Year to date cooling degree days 0  
Moisture  
Dew Point 29 °F    
Average Humidity 70    
Maximum Humidity 98    
Minimum Humidity 44    
Precipitation  
Precipitation 0.00 in 0.08 in 1.08 in (1882)
Month to date precipitation 0.73  
Year to date precipitation 4.36  
Snow  
Snow 0.00 in 0.20 in 5.90 in (1979)
Month to date snowfall 1.1  
Since 1 July snowfall 19.2  
Snow Depth -    
Sea Level Pressure  
Sea Level Pressure 30.15 in    
Wind  
Wind Speed 6 mph (SW)    
Max Wind Speed 17 mph    
Max Gust Speed 24 mph    
Visibility 8 miles    
Events      
T = Trace of Precipitation, MM = Missing Value Source: NWS Daily Summary

Daily Weather History Graph

Daily Weather History Graph

Search for Another Location

Airport:

Trip Planner

Search our weather history database for the weather conditions in past years. The results will help you decide how hot, cold, wet, or windy it might be!

Date:

Astronomy

Mar. 09, 2014 Rise Set
Actual Time 7:21 AM CDT 7:01 PM CDT
Civil Twilight 6:54 AM CDT 7:28 PM CDT
Nautical Twilight 6:23 AM CDT 7:59 PM CDT
Astronomical Twilight 5:52 AM CDT 8:31 PM CDT
Moon 12:55 PM CDT (3/9) 3:47 AM CDT (3/9)
Length of Visible Light 12h 33m
Length of Day
11h 39m
First Quarter, 61% of the Moon is Illuminated
Mar 9
First Quarter
Mar 16
Full
Mar 23
Last Quarter
Mar 30
New
Apr 7
First Quarter

Hourly Weather History & Observations

Time (CDT) Temp. Windchill Dew Point Humidity Pressure Visibility Wind Dir Wind Speed Gust Speed Precip Events Conditions
12:15 AM 32.4 °F - 31.6 °F 97% 30.30 in 3.0 mi Calm Calm - N/A   Overcast
12:35 AM 32.0 °F 28.7 °F 30.7 °F 95% 30.30 in 4.0 mi West 3.5 mph - N/A   Overcast
12:50 AM 32.0 °F - 30.2 °F 93% 30.30 in 4.0 mi Calm Calm - N/A   Overcast
1:15 AM 32.0 °F 28.7 °F 29.8 °F 92% 30.30 in 4.0 mi West 3.5 mph - N/A   Mostly Cloudy
1:35 AM 31.8 °F - 29.1 °F 90% 30.30 in 5.0 mi Calm Calm - N/A   Scattered Clouds
1:55 AM 30.6 °F 27.1 °F 27.7 °F 89% 30.31 in 5.0 mi West 3.5 mph - N/A   Clear
3:15 AM 29.3 °F 25.6 °F 27.0 °F 91% 30.31 in 5.0 mi West 3.5 mph - N/A   Scattered Clouds
3:35 AM 28.4 °F 24.6 °F 26.4 °F 92% 30.31 in 5.0 mi West 3.5 mph - N/A   Clear
3:55 AM 27.5 °F 23.6 °F 25.7 °F 93% 30.30 in 3.0 mi West 3.5 mph - N/A   Clear
4:15 AM 27.5 °F 23.6 °F 26.1 °F 94% 30.30 in 3.0 mi West 3.5 mph - N/A   Clear
4:35 AM 28.4 °F - 27.1 °F 95% 30.29 in 3.0 mi Calm Calm - N/A   Clear
4:55 AM 27.9 °F 24.0 °F 26.8 °F 96% 30.29 in 2.5 mi WSW 3.5 mph - N/A   Clear
5:15 AM 28.4 °F 24.6 °F 27.1 °F 95% 30.30 in 3.0 mi West 3.5 mph - N/A   Clear
5:35 AM 27.3 °F - 26.1 °F 95% 30.30 in 3.0 mi Calm Calm - N/A   Clear
5:55 AM 27.5 °F - 26.6 °F 96% 30.30 in 3.0 mi Calm Calm - N/A   Clear
6:15 AM 24.8 °F - 23.9 °F 96% 30.30 in 2.0 mi Calm Calm - N/A   Clear
6:30 AM 25.9 °F - 25.0 °F 96% 30.29 in 2.5 mi Calm Calm - N/A   Clear
6:55 AM 26.4 °F - 25.5 °F 96% 30.29 in 2.5 mi Calm Calm - N/A   Clear
7:15 AM 25.7 °F - 25.0 °F 97% 30.29 in 2.0 mi Calm Calm - N/A   Clear
7:35 AM 25.2 °F 20.9 °F 24.3 °F 96% 30.30 in 2.0 mi SSW 3.5 mph - N/A   Clear
7:55 AM 26.2 °F 22.1 °F 25.5 °F 97% 30.30 in 1.5 mi SSW 3.5 mph - N/A   Mist
8:15 AM 27.9 °F - 27.3 °F 98% 30.30 in 1.8 mi Calm Calm - N/A   Mist
8:35 AM 29.5 °F 25.9 °F 28.6 °F 96% 30.30 in 2.5 mi SSW 3.5 mph - N/A   Clear
8:55 AM 31.1 °F 25.4 °F 29.5 °F 94% 30.30 in 3.0 mi SSW 5.8 mph - N/A   Clear
9:15 AM 32.2 °F 27.7 °F 29.3 °F 89% 30.30 in 5.0 mi SSW 4.6 mph - N/A   Clear
9:35 AM 34.0 °F 28.8 °F 28.8 °F 81% 30.30 in 7.0 mi SSW 5.8 mph - N/A   Clear
9:55 AM 35.2 °F 28.8 °F 27.5 °F 73% 30.29 in 10.0 mi SSW 8.1 mph - N/A   Clear
10:15 AM 36.5 °F 29.2 °F 28.4 °F 72% 30.29 in 10.0 mi SW 10.4 mph - N/A   Clear
10:35 AM 37.4 °F 29.3 °F 28.4 °F 70% 30.28 in 10.0 mi SSW 12.7 mph - N/A   Clear
10:55 AM 37.9 °F 30.0 °F 28.8 °F 70% 30.27 in 10.0 mi SSW 12.7 mph - N/A   Clear
11:10 AM 39.2 °F 31.6 °F 29.3 °F 68% 30.26 in 10.0 mi SW 12.7 mph - N/A   Clear
11:35 AM 39.7 °F 31.5 °F 28.9 °F 65% 30.25 in 10.0 mi SSW 15.0 mph 19.6 mph N/A   Clear
11:55 AM 41.0 °F 33.5 °F 30.2 °F 65% 30.24 in 10.0 mi SW 13.8 mph - N/A   Clear
12:15 PM 41.9 °F 34.6 °F 30.2 °F 63% 30.23 in 10.0 mi SW 13.8 mph 19.6 mph N/A   Clear
12:35 PM 42.8 °F 35.8 °F 31.1 °F 63% 30.22 in 10.0 mi SW 13.8 mph - N/A   Clear
12:55 PM 43.9 °F 37.5 °F 30.7 °F 60% 30.21 in 10.0 mi SW 12.7 mph 18.4 mph N/A   Clear
1:15 PM 44.8 °F 38.0 °F 30.4 °F 57% 30.19 in 10.0 mi SW 15.0 mph 18.4 mph N/A   Clear
1:35 PM 45.9 °F 39.7 °F 30.7 °F 56% 30.18 in 10.0 mi SW 13.8 mph 19.6 mph N/A   Clear
1:55 PM 46.6 °F - 30.9 °F 54% 30.16 in 10.0 mi SW 15.0 mph 20.7 mph N/A   Clear
2:15 PM 48.0 °F - 31.6 °F 53% 30.14 in 10.0 mi SW 13.8 mph 19.6 mph N/A   Clear
2:35 PM 48.4 °F - 31.6 °F 52% 30.12 in 10.0 mi SW 13.8 mph 23.0 mph N/A   Clear
2:55 PM 49.3 °F - 31.6 °F 51% 30.10 in 10.0 mi SW 15.0 mph 21.9 mph N/A   Clear
3:15 PM 50.2 °F - 32.0 °F 50% 30.09 in 10.0 mi SSW 16.1 mph 24.2 mph N/A   Clear
3:35 PM 50.9 °F - 31.6 °F 48% 30.08 in 10.0 mi SW 15.0 mph - N/A   Clear
3:55 PM 50.9 °F - 31.1 °F 47% 30.08 in 10.0 mi SSW 16.1 mph 21.9 mph N/A   Clear
4:15 PM 51.8 °F - 31.5 °F 46% 30.07 in 10.0 mi SW 13.8 mph 18.4 mph N/A   Clear
4:35 PM 51.8 °F - 31.5 °F 46% 30.05 in 10.0 mi SSW 17.3 mph - N/A   Clear
4:55 PM 52.3 °F - 31.1 °F 44% 30.05 in 10.0 mi SSW 13.8 mph 18.4 mph N/A   Clear
5:15 PM 52.5 °F - 31.3 °F 44% 30.03 in 10.0 mi SSW 13.8 mph 20.7 mph N/A   Clear
5:35 PM 52.5 °F - 31.3 °F 44% 30.02 in 10.0 mi SSW 13.8 mph - N/A   Clear
5:55 PM 52.3 °F - 31.6 °F 45% 30.02 in 10.0 mi SSW 12.7 mph - N/A   Clear
6:15 PM 51.3 °F - 31.8 °F 47% 30.00 in 10.0 mi South 9.2 mph - N/A   Clear
6:35 PM 50.2 °F - 31.1 °F 48% 29.99 in 10.0 mi South 11.5 mph - N/A   Clear
6:55 PM 48.4 °F - 31.1 °F 51% 29.99 in 10.0 mi South 6.9 mph - N/A   Clear
7:15 PM 46.6 °F - 30.9 °F 54% 29.99 in 10.0 mi South 6.9 mph - N/A   Clear
7:35 PM 45.0 °F 41.2 °F 30.6 °F 57% 29.99 in 10.0 mi South 6.9 mph - N/A   Clear
7:55 PM 44.6 °F 40.7 °F 30.2 °F 57% 29.99 in 10.0 mi South 6.9 mph - N/A   Clear
8:15 PM 43.2 °F 39.7 °F 30.0 °F 60% 29.99 in 10.0 mi South 5.8 mph - N/A   Clear
8:35 PM 42.6 °F 38.4 °F 29.8 °F 61% 29.98 in 10.0 mi South 6.9 mph - N/A   Clear
8:55 PM 42.6 °F 37.8 °F 30.0 °F 61% 29.97 in 10.0 mi South 8.1 mph - N/A   Clear
9:15 PM 43.3 °F 38.6 °F 30.0 °F 59% 29.97 in 10.0 mi South 8.1 mph - N/A   Clear
9:35 PM 43.3 °F 38.1 °F 30.0 °F 59% 29.97 in 10.0 mi South 9.2 mph - N/A   Clear
9:55 PM 44.2 °F 39.2 °F 29.8 °F 57% 29.97 in 10.0 mi SSW 9.2 mph - N/A   Clear
10:15 PM 43.3 °F 39.2 °F 30.0 °F 59% 29.98 in 10.0 mi SSW 6.9 mph - N/A   Clear
10:35 PM 43.7 °F 38.1 °F 30.2 °F 59% 29.97 in 10.0 mi SSW 10.4 mph - N/A   Clear
10:55 PM 44.6 °F 39.7 °F 30.4 °F 57% 29.97 in 10.0 mi SSW 9.2 mph - N/A   Clear
11:15 PM 44.6 °F 39.2 °F 30.4 °F 57% 29.96 in 10.0 mi SSW 10.4 mph - N/A   Clear
11:35 PM 44.1 °F 38.1 °F 30.4 °F 59% 29.95 in 10.0 mi SSW 11.5 mph - N/A   Clear
11:55 PM 44.1 °F 38.1 °F 30.2 °F 58% 29.95 in 10.0 mi SSW 11.5 mph 16.1 mph N/A   Clear
12:15 AM 43.9 °F 37.2 °F 30.2 °F 59% 29.94 in 10.0 mi SSW 13.8 mph - N/A   Clear
12:35 AM 43.7 °F 37.3 °F 30.6 °F 60% 29.94 in 10.0 mi SW 12.7 mph - N/A   Clear
12:55 AM 43.7 °F 37.3 °F 30.6 °F 60% 29.93 in 10.0 mi SW 12.7 mph - N/A   Clear